Regional Weather Roundup
Issued by NWS Wakefield, VA

Home | Current Version | Previous Version | Graphics & Text | Print | Product List | Glossary On
Versions: 1 2 3 4 5 6 7 8 9 10 11 12 13 14 15 16 17 18 19 20 21 22 23 24 25 26 27 28 29 30 31 32 33 34 35 36 37 38 39 40 41 42 43 44 45 46 47 48 49
000
ASUS41 KAKQ 311012
RWRAKQ

REGIONAL WEATHER ROUNDUP
NATIONAL WEATHER SERVICE WAKEFIELD VA
600 AM EDT MON AUG 31 2015

Note: "fair" indicates few or no clouds below 12,000 feet with no
significant weather and/or obstructions to visibility. * = Denotes
station may not report precipitation (e.g., rain,snow,etc.),
thunder or fog.

VAZ042-051-052>054-056-311100-
NORTHERN VIRGINIA

CITY           SKY/WX    TMP DP  RH WIND       PRES   REMARKS
WASH NATIONAL  CLOUDY    75  68  78 S6        30.07S
DULLES         CLOUDY    73  66  78 CALM      30.07S
FORT BELVOIR   CLOUDY    70  67  92 E1        30.06F
QUANTICO       CLOUDY    73  64  73 VRB5      30.08S
FREDERICKSBRG* CLOUDY    75  66  75 CALM      30.07S
STAFFORD*      CLOUDY    70  64  83 S5        30.12R
WARRENTON      CLOUDY    71  69  93 CALM      30.07S
CULPEPER*      CLOUDY    69  67  93 S3        30.08S
MANASSAS*      CLOUDY    70  68  94 SE3       30.07S
LEESBURG*      CLOUDY    73  72  94 CALM      30.08S
WINCHESTER     CLOUDY    72  63  73 CALM      30.08S
FRONT ROYAL*   FAIR      70  64  83 CALM      30.08R
LURAY*         CLOUDY    68  64  88 CALM      30.10R
$$

VAZ048-049-060>072-079>083-311100-
CENTRAL AND SOUTH CENTRAL VIRGINIA

CITY           SKY/WX    TMP DP  RH WIND       PRES   REMARKS
RICHMOND       CLOUDY    74  66  76 CALM      30.09S
CHESTERFIELD*  CLOUDY    72  57  60 S3        30.12R
PETERSBURG*    CLOUDY    71  71 100 CALM      30.12R
HANOVER        CLOUDY    70  68  93 CALM      30.11S
TAPPAHANNOCK*  CLOUDY    72  64  76 CALM      30.10S
QUINTON*       CLOUDY    71  69  93 S6        30.10S
CHARLOTTSVILLE CLOUDY    70  65  84 S5        30.09S
GORDONSVILLE*  PTSUNNY   69  67  94 CALM      30.08S
ORANGE*        LGT RAIN  70  68  94 CALM      30.10S
LOUISA*        CLOUDY    72  66  83 CALM      30.09R
BUMPASS*       CLOUDY    70  66  88 MISG      30.10R
FARMVILLE*     CLOUDY    71  71  99 CALM      30.09S
CREWE*         CLOUDY   N/A N/A N/A CALM      30.11R
FORT PICKETT*  CLOUDY    70  67  88 S5        30.12S
CHASE CITY*    CLOUDY    71  71  98 CALM      30.12R
CLARKSVILLE*   CLOUDY    68  66  94 CALM      30.11S
SOUTH HILL*    CLOUDY    69  66  90 CALM      30.17S
LAWRENCEVILLE* CLOUDY    70  66  88 CALM      30.11F
EMPORIA*       CLOUDY    70  64  83 CALM      30.12S
$$

VAZ088>098-311100-
SOUTHEAST VIRGINIA

CITY           SKY/WX    TMP DP  RH WIND       PRES   REMARKS
NORFOLK        CLOUDY    75  68  78 S3        30.10S
VIRGINIA BEACH CLOUDY    76  70  82 SW5       30.10S
NORFOLK NAVAL  LGT RAIN  75  68  78 CALM      30.11F
WEST POINT*    CLOUDY    76  67  73 SW3       30.12R
SALUDA*        CLOUDY    73  69  89 CALM      30.09R
NEWPORT NEWS   CLOUDY    76  67  73 W6        30.10F
LANGLEY AFB    CLOUDY    75  68  79 SW2       30.09F
FORT EUSTIS    CLOUDY    75  69  81 W2        30.09S
WILLIAMSBURG*  CLOUDY    75  70  83 CALM      30.11S
HR EXEC AP*      N/A     70  66  88 CALM      30.12F
FRANKLIN*      NOT AVBL
WAKEFIELD      CLOUDY    73  66  78 CALM      30.10F
$$

VAZ020-022-025-037-045-311100-
WEST CENTRAL AND SOUTHWEST VIRGINIA

CITY           SKY/WX    TMP DP  RH WIND       PRES   REMARKS
STAUNTON*      CLOUDY    71  65  82 CALM      30.13S
WAYNESBORO*    CLOUDY    70  59  68 CALM      30.13S
HOT SPRINGS VA CLOUDY    65  57  74 W5        30.22S
LYNCHBURG      CLOUDY    67  65  93 S3        30.13S
DANVILLE       LGT RAIN  69  67  93 CALM      30.11F FOG
SOUTH BOSTON*  PTSUNNY   68  67  95 CALM      30.10F
MARTINSVILLE   CLOUDY    67  67 100 CALM      30.15S FOG
ROANOKE        CLOUDY    68  66  93 S3        30.14S
BLACKSBURG     CLOUDY    65  65  99 CALM      30.18F
DUBLIN*        CLOUDY    65  65 100 CALM      30.18R
MARION*        CLOUDY    64  62  94 CALM      30.21S FOG
HILLSVILLE*    CLOUDY    63  62  96 CALM      30.17S
RICHLANDS*     CLOUDY    63  37  37 CALM      30.18F
WISE*          MOCLDY    64  63  94 S3        30.20R
ABINGDON*      DRIZZLE   66  63  92 CALM      30.18R
$$

MDZ021>025-VAZ099-100-311100-
SOUTHERN MARYLAND AND THE DELMARVA PENINSULA

CITY           SKY/WX    TMP DP  RH WIND       PRES   REMARKS
PATUXENT RIVER CLOUDY    75  66  73 W7        30.07S
BAY BRIDGE APT   N/A     77  64  65 SW3       30.06R
LEONARDTOWN    CLOUDY    72  64  78 CALM      30.09S
DOVER          CLOUDY    74  69  84 SW7       30.04S
GEORGETOWN     CLOUDY    72  68  87 SW7       30.08S
EASTON         CLEAR     75  68  78 SW7       30.10
CAMBRIDGE      CLOUDY    73  68  83 CALM      30.07S
SALISBURY      CLOUDY    71  69  93 S3        30.08S
OCEAN CITY     CLOUDY    76  68  76 SW7       30.08S
WALLOPS ISLAND CLOUDY    74  71  91 SW7       30.09S
ACCOMACK*      CLOUDY    70  63  78 SW3       30.09S
$$

NCZ012>017-030>032-311100-
NORTH CENTRAL AND EASTERN NORTH CAROLINA

CITY           SKY/WX    TMP DP  RH WIND       PRES   REMARKS
ROANOKE RAPIDS LGT RAIN  68  66  94 S3        30.12R
RALEIGH        RAIN      69  67  93 CALM      30.11F FOG
ELIZABETH CITY CLOUDY    74  68  81 CALM      30.10F
AHOSKIE*       CLOUDY    69  66  89 CALM      30.12R
EDENTON*       RAIN      73  69  88 W5        30.12R
CURRITUCK*     CLOUDY    74  70  87 CALM      30.12S
KILL DEVIL HLS CLOUDY    75  70  84 CALM      30.09F
MANTEO         CLOUDY    73  70  89 CALM      30.11S
CAPE HATTERAS  CLOUDY    74  71  91 CALM      30.12R
TARBORO*       PTSUNNY   70  68  93 CALM      30.13R
GOLDSBORO      CLOUDY    71  69  95 NE7       30.08F
WASHINGTON     CLOUDY    71  68  91 NE3       30.11S
GREENVILLE     CLOUDY    70  70 100 CALM      30.12F
NEW BERN       CLOUDY    73  70  90 CALM      30.11S
WILMINGTON     CLOUDY    77  74  90 E5        30.07S
$$

VAZ048-311100-
ELSEWHERE

CITY           SKY/WX    TMP DP  RH WIND       PRES   REMARKS
HARRISBURG PA  CLOUDY    72  67  84 CALM      30.05R
BALTIMORE      CLOUDY    75  66  73 W3        30.05S
ANNAPOLIS      CLOUDY    75  64  68 W3        30.05S
ANDREWS AFB    CLOUDY    74  66  75 SW7       30.06S
PHILADELPHIA   CLOUDY    76  67  73 S7        30.05S
HENDERSON NC   LGT RAIN  67  64  87 CALM      30.13R
GREENSBORO     CLOUDY    67  66  97 N3        30.10F
ROCKY MOUNT    CLOUDY    72  66  81 E5        30.11S
$$

VAZ100-311100-
MARINE

STATION/POSITION TIME  TEMP    WIND        PRES    WAVE   SWELL
                       AIR SEA DIR/SP/G            HT/PER HT/PER
                 (UTC) (F)     (DEG/KT/KT) (MB)    (FT/S) (FT/S)
15NM E FENWICK I 0950   78 78  210/ 12/ 14 1018.6S   3/ 9   2/ 9
GOOSES REEF MD   1000   78 80  230/ 10/ 14 1018.8F
POTOMAC MD       1000   76 79  240/ 12/ 14 1017.7R   1/ 2
STINGRAY PT      0900   78 79  220/ 10/ 14 1019.3R   1
JAMESTOWN VA     1000   74 80  300/  4/  6   N/A
CHESAPEAKE LGHT  0900   77     230/ 11/ 12 1020.0R
CAPE HENRY BUOY  0928      79                N/A     3/ 9   2/11
1ST LANDING BUOY 1000      79              1019.0F   1/ 4
CAPE CHARLES BUO 0926      79                N/A     2/10   2/10
OFFSHORE WE BUOY 0911      78                N/A     3/11   3/11
64NM E OF VA BCH 0950   77 78  230/  6/  8 1019.2F   3/10   3/10
44100 DUCK FRF   0924      78                N/A     3/10   2/11
44056 DUCK FRF   0911      79                N/A     2/10   2/11
DIAMOND SHLS NC  0950   80 83   CALM  /  2 1020.0R   3/10   3/10
CAPE LOOKOUT NC  0900   79     110/  4/  5 1019.1F
$$


USA.gov is the U.S. government's official web portal to all federal, state and local government web resources and services.